This is the latest recevied weather packets stored in our database for station/object SR2ATJ-13. If no packets are shown the sender has not sent any weather packets the latest 10 day(s).
| Time | Temp. | Humidity | Pressure | Rain* | Wind** | Luminosity | Snow |
|---|---|---|---|---|---|---|---|
| 1777661704 | 13.89° C | 44% | 1024.7 hPa | - | - | - | - |
| 1777661105 | 13.89° C | 45% | 1024.7 hPa | - | - | - | - |
| 1777660503 | 14.44° C | 44% | 1024.7 hPa | - | - | - | - |
| 1777659904 | 15° C | 45% | 1024.7 hPa | - | - | - | - |
| 1777659303 | 15.56° C | 41% | 1024.5 hPa | - | - | - | - |
| 1777658704 | 16.11° C | 39% | 1024.5 hPa | - | - | - | - |
| 1777658104 | 16.67° C | 38% | 1024.4 hPa | - | - | - | - |
| 1777657506 | 17.22° C | 37% | 1024.3 hPa | - | - | - | - |
| 1777655704 | 18.89° C | 33% | 1024.2 hPa | - | - | - | - |
| 1777653303 | 20° C | 31% | 1024.3 hPa | - | - | - | - |
| 1777652704 | 20° C | 31% | 1024.4 hPa | - | - | - | - |
| 1777652104 | 20.56° C | 30% | 1024.4 hPa | - | - | - | - |
| 1777651504 | 20.56° C | 30% | 1024.5 hPa | - | - | - | - |
| 1777650903 | 20.56° C | 29% | 1024.6 hPa | - | - | - | - |
| 1777650305 | 20.56° C | 29% | 1024.6 hPa | - | - | - | - |
| 1777649704 | 21.11° C | 29% | 1024.6 hPa | - | - | - | - |
| 1777649104 | 21.11° C | 29% | 1024.6 hPa | - | - | - | - |
| 1777648504 | 21.11° C | 29% | 1024.7 hPa | - | - | - | - |
| 1777647904 | 21.67° C | 29% | 1024.9 hPa | - | - | - | - |
| 1777647304 | 21.67° C | 28% | 1024.9 hPa | - | - | - | - |
| 1777646704 | 21.11° C | 28% | 1024.9 hPa | - | - | - | - |
| 1777646104 | 21.11° C | 29% | 1025 hPa | - | - | - | - |
| 1777645504 | 21.11° C | 29% | 1025.1 hPa | - | - | - | - |
| 1777644904 | 21.11° C | 28% | 1025.2 hPa | - | - | - | - |
| 1777644304 | 21.11° C | 28% | 1025.2 hPa | - | - | - | - |
* Rain since midnight (hover to see other rain measurements)
** Current wind speed in m/s (hover to see current wind gust speed)